Location: Bear Valley
(38.4650°N, 120.0390°W)
Time: 11:17:17
(UTC-07:00)

OTV 5 (USA 277) - Visible Passes

Search period start: 21 October 2019 00:00
Search period end: 31 October 2019 00:00
Orbit: 310 x 324 km, 54.5° (Epoch: 17 October)

Date Brightness Start Highest point End Pass type
(mag) Time Alt. Az. Time Alt. Az. Time Alt. Az.
21 Oct ? 05:54:26 57° SW 05:54:26 57° SW 05:57:05 10° SSE visible
22 Oct ? 06:09:22 17° SW 06:09:22 17° SW 06:10:44 10° S visible
26 Oct ? 20:14:37 10° WSW 20:14:49 12° WSW 20:14:49 12° WSW visible
27 Oct ? 18:55:32 10° S 18:57:41 21° SE 18:58:38 18° E visible
28 Oct ? 19:09:25 10° SW 19:12:06 74° SE 19:13:13 31° NE visible
29 Oct ? 19:24:11 10° WSW 19:26:42 33° NW 19:27:41 24° N visible
30 Oct ? 19:39:45 10° WNW 19:41:26 15° NNW 19:42:01 14° NNW visible
